{"data":{"norad_id":62108,"intl_designator":"2024-220W","name":"STARLINK-33553","alt_names":[],"object_type":"PAYLOAD","status":"ACTIVE","operator":null,"country":"US","launch_date":"2024-11-25","launch_site_code":"AFETR","launch_vehicle":null,"mission":null,"orbit_class":"UNKNOWN","rcs_meters":null,"size_class":null,"mass_kg":null,"dimensions":null,"purposes":["comms"],"wikipedia_slug":null,"has_3d_model":false,"image_url":null,"decayed_at":null,"tle_current":{"epoch":"2026-05-25T00:15:11.024928Z","epoch_age_seconds":77417,"freshness":"FRESH","line1":"1 62108U 24220W   26145.01054427  .00014436  00000+0  53283-3 0  9999","line2":"2 62108  42.9999 134.5109 0000850 272.0381  88.0373 15.27596375 84865","mean_motion":15.27596375,"eccentricity":8.5e-5,"inclination_deg":42.9999,"raan_deg":134.5109,"arg_perigee_deg":272.0381,"mean_anomaly_deg":88.0373,"bstar":0.00053283,"rev_number":8486,"period_min":94.265738225518,"perigee_km":482.41686718635,"apogee_km":483.58326048721,"semimajor_km":6861.1370638368,"source":"CELESTRAK","updated_at":"2026-05-25T13:38:19.561115Z"}}}